N9BSW Weather Reports


Display with metric or nautical units.
time (UTC)temp
F
wind
direction
speed
MPH
gust
MPH
rain 1hr
in
rain 24hr
in
rain mn
in
humidity
%
barometer
mb
20260509075058 55 163 0.0 0.0 0.00 0.00 0.00 98 1007.8
20260509074555 55 186 1.0 2.0 0.00 0.00 0.00 98 1007.8
20260509074051 55 163 0.0 0.0 0.00 0.00 0.00 98 1007.9
20260509073548 55 136 0.0 1.0 0.00 0.00 0.00 98 1007.7
20260509073045 55 162 0.0 1.0 0.00 0.00 0.00 98 1007.8
20260509072541 55 161 0.0 0.0 0.00 0.00 0.00 98 1007.8
20260509072038 55 163 0.0 1.0 0.00 0.00 0.00 98 1007.9
20260509071535 55 164 0.0 1.0 0.00 0.00 0.00 98 1008.3
20260509071033 55 165 0.0 0.0 0.00 0.00 0.00 98 1008.4
20260509070529 55 164 0.0 0.0 0.00 0.00 0.00 98 1008.3
20260509070026 55 160 0.0 0.0 0.00 0.00 0.00 98 1008.2
20260509065521 55 161 0.0 0.0 0.00 0.00 0.00 98 1008.4
20260509065017 55 163 0.0 0.0 0.00 0.00 0.00 98 1008.5
20260509064515 55 153 0.0 0.0 0.00 0.00 0.00 98 1008.6
20260509064013 55 167 0.0 1.0 0.00 0.00 0.00 98 1009.0
20260509063508 55 155 0.0 0.0 0.00 0.00 0.00 98 1008.5
20260509063006 55 162 0.0 0.0 0.00 0.00 0.00 98 1008.8
20260509062503 55 161 0.0 0.0 0.00 0.00 0.00 98 1008.7
20260509062001 55 163 0.0 0.0 0.00 0.00 0.00 98 1008.8
20260509061457 55 160 0.0 0.0 0.00 0.00 0.00 98 1008.7
20260509060954 55 161 0.0 0.0 0.00 0.00 0.00 98 1008.6
20260509060452 56 175 0.0 1.0 0.00 0.00 0.00 98 1008.8
20260509055947 56 183 1.0 2.0 0.00 0.00 0.00 98 1009.3
20260509055443 55 168 0.0 0.0 0.00 0.00 0.00 98 1009.1
20260509054939 56 165 1.0 2.0 0.00 0.00 0.00 98 1009.3
20260509054436 56 161 0.0 0.0 0.00 0.00 0.00 98 1009.7
20260509053934 56 161 0.0 0.0 0.00 0.00 0.00 98 1009.9
20260509053432 56 164 0.0 0.0 0.00 0.00 0.00 98 1009.9
20260509052929 56 167 0.0 0.0 0.00 0.00 0.00 98 1009.8
20260509052427 56 167 1.0 1.0 0.00 0.00 0.00 98 1009.8
20260509051925 56 158 0.0 0.0 0.00 0.00 0.00 98 1009.7
20260509051422 56 153 0.0 1.0 0.00 0.00 0.00 98 1009.8
20260509050919 55 163 0.0 0.0 0.00 0.00 0.00 98 1009.7
20260509050415 55 162 1.0 2.0 0.00 0.00 0.00 97 1009.9
20260509045912 55 165 0.0 1.0 0.00 0.00 0.00 97 1009.8
20260509045409 55 161 0.0 0.0 0.00 0.00 0.00 97 1009.6
20260509044906 55 160 0.0 1.0 0.00 0.00 0.00 97 1009.8
20260509044404 55 165 0.0 0.0 0.00 0.00 0.00 97 1009.7
20260509043901 55 160 0.0 0.0 0.00 0.00 0.00 97 1009.7
20260509043356 55 157 0.0 0.0 0.00 0.00 0.00 97 1009.6
20260509042852 55 160 0.0 0.0 0.00 0.00 0.00 97 1009.7
20260509042349 55 165 0.0 0.0 0.00 0.00 0.00 97 1009.8
20260509041846 55 162 0.0 0.0 0.00 0.00 0.00 97 1009.7
20260509041343 55 166 0.0 1.0 0.00 0.00 0.00 97 1009.7
20260509040841 55 151 0.0 1.0 0.00 0.00 0.00 97 1009.5
20260509040338 55 165 0.0 0.0 0.00 0.00 0.00 97 1009.6
20260509035835 55 155 0.0 0.0 0.00 0.00 0.00 97 1009.6
20260509035332 55 164 0.0 0.0 0.00 0.00 0.00 97 1009.5
20260509034828 55 179 0.0 0.0 0.00 0.00 0.00 97 1009.6
20260509034327 56 167 0.0 0.0 0.00 0.00 0.00 97 1010.1
20260509033823 56 159 0.0 0.0 0.00 0.00 0.00 97 1010.1
20260509033320 56 180 0.0 0.0 0.00 0.00 0.00 97 1009.9
20260509032817 56 165 0.0 0.0 0.00 0.00 0.00 97 1009.8
20260509032314 56 163 0.0 1.0 0.00 0.00 0.00 97 1009.7
20260509031812 56 160 0.0 0.0 0.00 0.00 0.00 97 1009.9
20260509031309 56 163 1.0 1.0 0.00 0.00 0.00 97 1009.7
20260509030807 56 151 0.0 1.0 0.00 0.00 0.00 96 1009.7
20260509030304 56 158 0.0 0.0 0.00 0.00 0.00 96 1009.9
20260509025801 56 159 0.0 0.0 0.00 0.00 0.00 96 1009.8
20260509025256 56 160 1.0 2.0 0.00 0.00 0.00 96 1010.1
20260509024752 56 161 0.0 0.0 0.00 0.00 0.00 96 1010.2
20260509024248 56 162 0.0 0.0 0.00 0.00 0.00 96 1010.1
20260509023746 56 156 0.0 0.0 0.00 0.00 0.00 96 1010.0
20260509023243 56 151 0.0 1.0 0.00 0.00 0.00 96 1010.0
20260509022739 56 165 1.0 1.0 0.00 0.00 0.00 96 1010.1
20260509022237 56 165 0.0 0.0 0.00 0.00 0.00 96 1010.0
20260509021733 56 161 0.0 0.0 0.00 0.00 0.00 96 1010.2
20260509021230 56 162 0.0 0.0 0.00 0.00 0.00 96 1010.5
20260509020729 56 162 0.0 0.0 0.00 0.00 0.00 96 1010.4
20260509020225 56 186 2.0 3.0 0.00 0.00 0.00 96 1010.2
20260509015723 56 164 0.0 0.0 0.00 0.00 0.00 96 1010.6
20260509015222 56 148 0.0 1.0 0.00 0.00 0.00 96 1010.1
20260509014718 56 182 1.0 1.0 0.00 0.00 0.00 96 1010.1
20260509014215 56 161 0.0 0.0 0.00 0.00 0.00 96 1010.0
20260509013711 56 167 0.0 0.0 0.00 0.00 0.00 96 1010.0
20260509013207 56 161 0.0 0.0 0.00 0.00 0.00 96 1009.8
20260509012704 56 163 0.0 0.0 0.00 0.00 0.00 96 1010.1
20260509012200 56 162 0.0 0.0 0.00 0.00 0.00 96 1010.1
20260509011658 56 164 1.0 1.0 0.00 0.00 0.00 96 1010.2
20260509011155 56 160 0.0 0.0 0.00 0.00 0.00 96 1010.0
20260509010653 56 162 0.0 0.0 0.00 0.00 0.00 96 1009.8
20260509010149 56 160 0.0 0.0 0.00 0.00 0.00 96 1010.1
20260509005647 56 163 0.0 0.0 0.00 0.00 0.00 96 1010.0
20260509005143 56 162 0.0 0.0 0.00 0.00 0.00 96 1009.9
20260509004639 56 166 0.0 0.0 0.00 0.00 0.00 95 1009.8
20260509004136 56 162 0.0 0.0 0.00 0.00 0.00 95 1009.8
20260509003635 56 162 0.0 1.0 0.00 0.00 0.00 95 1009.4
20260509003132 56 163 0.0 0.0 0.00 0.00 0.00 95 1009.5
20260509002629 56 163 0.0 0.0 0.00 0.00 0.00 95 1009.8
20260509002126 56 164 0.0 0.0 0.00 0.00 0.00 95 1009.4
20260509001624 56 163 0.0 0.0 0.00 0.00 0.00 95 1009.7
20260509001119 56 158 0.0 0.0 0.00 0.00 0.00 95 1009.9
20260509000618 56 182 0.0 1.0 0.00 0.00 0.00 94 1009.9
20260509000114 56 172 1.0 1.0 0.00 0.00 0.00 94 1010.0
20260508235612 56 187 1.0 1.0 0.00 0.00 0.00 94 1010.1
20260508235108 56 166 1.0 1.0 0.00 0.00 0.00 94 1010.0
20260508234605 56 163 0.0 0.0 0.00 0.00 0.00 94 1010.0
20260508234102 57 167 0.0 0.0 0.00 0.00 0.00 93 1009.8
20260508233601 57 160 0.0 0.0 0.00 0.00 0.00 94 1009.8
20260508233058 57 130 1.0 1.0 0.00 0.00 0.00 93 1010.0
20260508232555 57 166 0.0 0.0 0.00 0.00 0.00 94 1010.1
20260508232052 57 159 0.0 0.0 0.00 0.00 0.00 94 1010.3
20260508231550 57 157 0.0 0.0 0.00 0.00 0.00 93 1010.3
20260508231046 57 141 1.0 1.0 0.00 0.00 0.00 93 1010.1
20260508230543 57 146 1.0 1.0 0.00 0.00 0.00 93 1009.9
20260508230040 57 162 0.0 0.0 0.00 0.00 0.00 93 1010.2
20260508225537 57 165 0.0 0.0 0.00 0.00 0.00 92 1010.1
20260508225033 57 160 0.0 0.0 0.00 0.00 0.00 92 1010.0
20260508224532 57 159 0.0 0.0 0.00 0.00 0.00 92 1010.1
20260508224029 57 162 0.0 0.0 0.00 0.00 0.00 91 1010.1
20260508223527 57 158 0.0 0.0 0.00 0.00 0.00 91 1009.9
20260508223023 57 149 0.0 0.0 0.00 0.00 0.00 90 1010.0
20260508222521 57 149 1.0 2.0 0.00 0.00 0.00 88 1010.0
20260508222017 58 149 1.0 3.0 0.00 0.00 0.00 87 1010.1
20260508221514 58 171 0.0 1.0 0.00 0.00 0.00 85 1009.9
20260508221010 59 167 1.0 2.0 0.00 0.00 0.00 82 1010.0
20260508220506 59 136 0.0 1.0 0.00 0.00 0.00 80 1010.1
20260508220002 60 184 1.0 2.0 0.00 0.00 0.00 77 1010.0
20260508215500 61 169 1.0 1.0 0.00 0.00 0.00 75 1009.7
20260508214956 61 252 1.0 2.0 0.00 0.00 0.00 73 1009.8
20260508214454 62 178 1.0 1.0 0.00 0.00 0.00 69 1009.6
20260508213950 62 164 0.0 0.0 0.00 0.00 0.00 70 1009.4
20260508213448 61 162 0.0 0.0 0.00 0.00 0.00 72 1009.4
20260508212942 61 161 0.0 0.0 0.00 0.00 0.00 70 1009.5
20260508212440 62 160 0.0 0.0 0.00 0.00 0.00 71 1009.5
20260508211935 62 166 0.0 0.0 0.00 0.00 0.00 68 1009.3
20260508211431 62 221 1.0 2.0 0.00 0.00 0.00 68 1009.4
20260508210929 63 161 0.0 0.0 0.00 0.00 0.00 65 1009.5
20260508210425 63 170 1.0 2.0 0.00 0.00 0.00 61 1009.6
20260508205921 64 193 2.0 3.0 0.00 0.00 0.00 56 1009.6
20260508205419 65 161 1.0 1.0 0.00 0.00 0.00 55 1009.6
20260508204915 66 174 0.0 1.0 0.00 0.00 0.00 53 1009.7
20260508204412 66 204 2.0 3.0 0.00 0.00 0.00 51 1009.4
20260508203908 66 163 0.0 1.0 0.00 0.00 0.00 51 1009.3
20260508203404 67 161 0.0 0.0 0.00 0.00 0.00 48 1009.1
20260508202900 67 154 1.0 2.0 0.00 0.00 0.00 47 1009.5
20260508202357 67 161 0.0 1.0 0.00 0.00 0.00 47 1009.4
20260508201855 67 160 0.0 0.0 0.00 0.00 0.00 46 1009.6
20260508201351 67 161 0.0 1.0 0.00 0.00 0.00 47 1009.4
20260508200848 67 164 2.0 2.0 0.00 0.00 0.00 46 1009.7
20260508200344 68 160 0.0 1.0 0.00 0.00 0.00 46 1009.7
20260508195840 67 294 1.0 3.0 0.00 0.00 0.00 47 1009.7
20260508195337 67 150 1.0 1.0 0.00 0.00 0.00 46 1009.8
20260508194833 67 147 0.0 1.0 0.00 0.00 0.00 48 1009.8
20260508194331 67 126 2.0 3.0 0.00 0.00 0.00 47 1010.1
20260508193827 67 158 0.0 0.0 0.00 0.00 0.00 47 1010.1
20260508193324 67 141 1.0 2.0 0.00 0.00 0.00 47 1010.2
20260508192821 67 159 0.0 1.0 0.00 0.00 0.00 47 1010.1
20260508192318 66 171 0.0 1.0 0.00 0.00 0.00 48 1010.2
20260508191815 66 198 0.0 1.0 0.00 0.00 0.00 47 1010.2
20260508191312 66 138 1.0 2.0 0.00 0.00 0.00 48 1010.3
20260508190809 66 145 0.0 1.0 0.00 0.00 0.00 48 1010.6
20260508190305 67 160 1.0 1.0 0.00 0.00 0.00 50 1010.6
20260508185801 66 221 2.0 3.0 0.00 0.00 0.00 49 1010.6
20260508185259 66 161 0.0 1.0 0.00 0.00 0.00 50 1010.7
20260508184756 66 170 1.0 2.0 0.00 0.00 0.00 49 1010.7
20260508184253 66 216 1.0 2.0 0.00 0.00 0.00 49 1011.0
20260508183750 66 156 0.0 1.0 0.00 0.00 0.00 49 1011.1
20260508183247 66 182 1.0 1.0 0.00 0.00 0.00 48 1010.9
20260508182743 66 155 4.0 6.0 0.00 0.00 0.00 47 1010.9
20260508182240 66 219 3.0 3.0 0.00 0.00 0.00 48 1010.9
20260508181735 66 165 1.0 1.0 0.00 0.00 0.00 48 1011.1
20260508181232 66 300 3.0 4.0 0.00 0.00 0.00 48 1011.3
20260508180729 67 168 2.0 3.0 0.00 0.00 0.00 46 1011.1
20260508180226 68 189 2.0 2.0 0.00 0.00 0.00 47 1011.3
20260508175722 68 234 1.0 2.0 0.00 0.00 0.00 47 1011.2
20260508175219 68 167 2.0 2.0 0.00 0.00 0.00 48 1011.4
20260508174717 69 149 2.0 3.0 0.00 0.00 0.00 45 1011.3
20260508174214 69 168 1.0 2.0 0.00 0.00 0.00 46 1011.5
20260508173710 69 154 0.0 1.0 0.00 0.00 0.00 45 1011.5
20260508173206 67 211 2.0 3.0 0.00 0.00 0.00 46 1011.6
20260508172704 66 150 0.0 1.0 0.00 0.00 0.00 48 1011.7
20260508172200 67 174 1.0 2.0 0.00 0.00 0.00 46 1011.6
20260508171657 67 167 0.0 1.0 0.00 0.00 0.00 46 1011.8
20260508171153 67 164 0.0 1.0 0.00 0.00 0.00 46 1011.9
20260508170650 66 144 2.0 3.0 0.00 0.00 0.00 48 1012.0
20260508170148 67 201 5.0 8.0 0.00 0.00 0.00 46 1012.1
20260508165645 67 228 3.0 6.0 0.00 0.00 0.00 47 1012.2
20260508165142 66 229 2.0 3.0 0.00 0.00 0.00 46 1012.1
20260508164638 65 233 1.0 2.0 0.00 0.00 0.00 48 1012.3
20260508164135 66 149 0.0 1.0 0.00 0.00 0.00 48 1012.7
20260508163633 66 220 3.0 4.0 0.00 0.00 0.00 46 1012.6
20260508163130 67 159 6.0 8.0 0.00 0.00 0.00 46 1012.6
20260508162626 67 101 3.0 4.0 0.00 0.00 0.00 48 1012.9
20260508162124 68 138 2.0 3.0 0.00 0.00 0.00 46 1012.8
20260508161620 68 218 2.0 6.0 0.00 0.00 0.00 46 1012.6
20260508161118 66 204 1.0 3.0 0.00 0.00 0.00 49 1012.8
20260508160616 64 160 2.0 3.0 0.00 0.00 0.00 50 1012.8
20260508160113 65 144 2.0 3.0 0.00 0.00 0.00 48 1012.9
20260508155610 65 187 2.0 3.0 0.00 0.00 0.00 49 1012.8
20260508155107 64 180 1.0 2.0 0.00 0.00 0.00 50 1012.9
20260508154603 65 143 0.0 1.0 0.00 0.00 0.00 48 1013.1
20260508154100 65 146 2.0 4.0 0.00 0.00 0.00 49 1013.0
20260508153557 66 160 0.0 1.0 0.00 0.00 0.00 47 1013.1
20260508153054 67 152 0.0 1.0 0.00 0.00 0.00 46 1013.1
20260508152551 68 159 4.0 6.0 0.00 0.00 0.00 45 1012.7
20260508152046 68 238 7.0 8.0 0.00 0.00 0.00 45 1012.7
20260508151543 66 170 0.0 1.0 0.00 0.00 0.00 47 1012.9
20260508151040 67 154 2.0 6.0 0.00 0.00 0.00 47 1013.1
20260508150537 66 174 2.0 4.0 0.00 0.00 0.00 47 1012.9
20260508150033 66 133 3.0 6.0 0.00 0.00 0.00 46 1013.0
20260508145530 65 256 3.0 3.0 0.00 0.00 0.00 49 1013.0
20260508145026 65 181 3.0 6.0 0.00 0.00 0.00 48 1013.3
20260508144524 65 152 4.0 6.0 0.00 0.00 0.00 47 1013.1
20260508144021 65 235 3.0 7.0 0.00 0.00 0.00 46 1013.5
20260508143519 65 222 3.0 4.0 0.00 0.00 0.00 49 1013.4
20260508143015 63 234 2.0 6.0 0.00 0.00 0.00 51 1013.5
20260508142512 64 259 5.0 8.0 0.00 0.00 0.00 49 1013.3
20260508142008 63 215 3.0 6.0 0.00 0.00 0.00 50 1013.4
20260508141505 63 163 3.0 4.0 0.00 0.00 0.00 50 1013.7
20260508141003 62 160 2.0 3.0 0.00 0.00 0.00 50 1013.7
20260508140500 62 175 2.0 4.0 0.00 0.00 0.00 49 1013.4
20260508135955 62 283 4.0 6.0 0.00 0.00 0.00 51 1013.5
20260508135452 61 1 3.0 4.0 0.00 0.00 0.00 50 1013.8
20260508134948 61 268 4.0 6.0 0.00 0.00 0.00 51 1013.5
20260508134445 61 176 2.0 3.0 0.00 0.00 0.00 50 1013.5
20260508133942 61 162 3.0 4.0 0.00 0.00 0.00 49 1013.7
20260508133439 60 155 0.0 0.0 0.00 0.00 0.00 52 1013.9
20260508132936 60 162 2.0 4.0 0.00 0.00 0.00 50 1013.8
20260508132434 59 167 0.0 1.0 0.00 0.00 0.00 52 1013.9
20260508131931 59 181 2.0 2.0 0.00 0.00 0.00 51 1013.7
20260508131426 59 169 3.0 4.0 0.00 0.00 0.00 52 1013.9
20260508130923 58 184 3.0 4.0 0.00 0.00 0.00 52 1013.8
20260508130420 58 174 0.0 1.0 0.00 0.00 0.00 52 1013.9
20260508125915 58 167 0.0 0.0 0.00 0.00 0.00 52 1013.9
20260508125412 57 198 1.0 2.0 0.00 0.00 0.00 54 1014.0
20260508124910 57 169 4.0 4.0 0.00 0.00 0.00 52 1014.0
20260508124407 57 167 3.0 4.0 0.00 0.00 0.00 53 1013.8
20260508123905 56 157 0.0 1.0 0.00 0.00 0.00 55 1013.8
20260508123403 55 158 0.0 0.0 0.00 0.00 0.00 54 1013.8
20260508122859 55 163 2.0 3.0 0.00 0.00 0.00 55 1013.9
20260508122356 55 154 0.0 1.0 0.00 0.00 0.00 55 1013.9
20260508121853 54 274 4.0 9.0 0.00 0.00 0.00 56 1014.1
20260508121352 54 159 2.0 2.0 0.00 0.00 0.00 56 1013.8
20260508120849 53 161 0.0 0.0 0.00 0.00 0.00 57 1013.9
20260508120347 53 154 0.0 1.0 0.00 0.00 0.00 58 1013.9
20260508115844 52 164 1.0 1.0 0.00 0.00 0.00 60 1013.7
20260508115341 51 199 1.0 2.0 0.00 0.00 0.00 60 1013.9
20260508114838 50 166 1.0 1.0 0.00 0.00 0.00 62 1013.7
20260508114335 50 173 0.0 0.0 0.00 0.00 0.00 63 1013.4
20260508113832 49 168 0.0 0.0 0.00 0.00 0.00 64 1013.7
20260508113330 49 167 0.0 0.0 0.00 0.00 0.00 65 1013.4
20260508112826 48 158 0.0 0.0 0.00 0.00 0.00 66 1013.5
20260508112323 47 165 0.0 1.0 0.00 0.00 0.00 68 1013.4
20260508111820 46 165 0.0 0.0 0.00 0.00 0.00 70 1013.5
20260508111317 46 162 0.0 0.0 0.00 0.00 0.00 71 1013.4
20260508110814 45 163 0.0 0.0 0.00 0.00 0.00 72 1013.7
20260508110311 45 162 0.0 0.0 0.00 0.00 0.00 72 1013.3
20260508105811 45 161 0.0 0.0 0.00 0.00 0.00 73 1013.3
20260508105308 44 159 0.0 0.0 0.00 0.00 0.00 74 1013.3
20260508104805 44 161 0.0 0.0 0.00 0.00 0.00 74 1013.4
20260508104302 44 159 0.0 0.0 0.00 0.00 0.00 74 1013.5
20260508103759 45 162 0.0 0.0 0.00 0.00 0.00 73 1013.7
20260508103256 45 162 0.0 0.0 0.00 0.00 0.00 72 1013.4
20260508102753 45 162 0.0 0.0 0.00 0.00 0.00 71 1013.3
20260508102251 46 159 0.0 0.0 0.00 0.00 0.00 71 1013.2
20260508101748 46 156 0.0 0.0 0.00 0.00 0.00 71 1013.2
20260508101246 46 162 0.0 0.0 0.00 0.00 0.00 70 1013.2
20260508100743 46 159 0.0 0.0 0.00 0.00 0.00 69 1013.2
20260508100241 46 159 0.0 0.0 0.00 0.00 0.00 70 1013.0
20260508095737 47 160 0.0 0.0 0.00 0.00 0.00 69 1013.4
20260508095235 47 160 0.0 0.0 0.00 0.00 0.00 68 1013.3
20260508094731 46 159 0.0 0.0 0.00 0.00 0.00 70 1013.2
20260508094229 46 162 0.0 0.0 0.00 0.00 0.00 70 1013.1
20260508093726 46 161 0.0 0.0 0.00 0.00 0.00 70 1013.2
20260508093223 47 161 0.0 0.0 0.00 0.00 0.00 69 1013.3
20260508092720 47 160 0.0 0.0 0.00 0.00 0.00 68 1013.4
20260508092218 48 162 0.0 0.0 0.00 0.00 0.00 67 1013.7
20260508091716 49 162 0.0 0.0 0.00 0.00 0.00 66 1013.5
20260508091213 49 162 0.0 0.0 0.00 0.00 0.00 64 1013.5
20260508090710 50 160 0.0 0.0 0.00 0.00 0.00 64 1013.0
20260508090208 50 162 0.0 0.0 0.00 0.00 0.00 65 1013.4
20260508085703 50 164 0.0 0.0 0.00 0.00 0.00 65 1013.7
20260508085201 51 164 0.0 0.0 0.00 0.00 0.00 64 1013.5
20260508084657 51 163 0.0 0.0 0.00 0.00 0.00 63 1013.5
20260508084155 51 164 0.0 0.0 0.00 0.00 0.00 61 1013.4
20260508083652 51 164 0.0 0.0 0.00 0.00 0.00 61 1013.5
20260508083150 51 164 0.0 0.0 0.00 0.00 0.00 62 1013.7
20260508082650 52 165 0.0 0.0 0.00 0.00 0.00 63 1013.7
20260508082147 52 150 0.0 1.0 0.00 0.00 0.00 60 1013.9
20260508081645 52 183 1.0 1.0 0.00 0.00 0.00 60 1013.9
20260508081141 52 161 0.0 0.0 0.00 0.00 0.00 61 1013.9
20260508080639 52 164 0.0 0.0 0.00 0.00 0.00 61 1013.7
20260508080137 52 162 0.0 0.0 0.00 0.00 0.00 58 1013.8
20260508075633 52 161 0.0 0.0 0.00 0.00 0.00 60 1013.9
20260508075130 52 167 0.0 0.0 0.00 0.00 0.00 59 1013.9